RH
53 53 49 46 47 48 46 55 66 56 59 68 67 69 69 68 65 60 61 58 55 57 52 40 40 42 42 46 47 48 48 49 66 81 76 70 68 74 80 85 72 48 47 52
72 67 69 59 51 52 49 43 46 67 76 65 64 71 73 68 65 62 59 60 57 54 38 37 40 41 40 43 46 50 51 64 75 79 78 80 76 82 86 86 54 42 49 60
79 92 83 70 57 54 49 61 49 63 73 69 77 77 76 71 64 63 61 58 56 45 34 39 39 39 38 41 45 50 54 67 71 80 82 85 86 88 87 59 37 46 56 63
82 77 65 57 48 48 74 71 71 73 72 69 75 78 70 63 63 62 57 52 49 31 32 36 37 36 39 41 45 52 69 69 74 76 81 82 90 83 76 52 47 58 73 74
79 92 55 50 50 53 55 88 75 78 76 71 74 72 74 61 58 57 52 42 36 32 33 36 36 37 41 44 48 52 69 73 75 80 82 83 82 86 89 67 58 74 74 77
98 69 61 56 57 52 50 76 79 79 82 78 73 94 83 71 68 57 38 36 32 33 33 36 34 38 43 48 53 57 72 74 77 82 84 86 87 90 85 56 70 71 79 83
99 91 81 55 54 53 75 66 84 84 87 86 87 83 72 80 70 40 36 34 34 36 36 37 39 45 50 53 56 57 70 74 80 81 84 85 88 73 56 74 79 88 84 87
99 98 85 57 56 66 68 92 90 88 85 86 83 78 76 67 45 41 35 36 36 41 43 46 46 50 52 56 56 62 69 73 75 74 67 54 60 62 68 75 82 92 94 94
80 81 62 58 61 73 86 90 92 87 84 80 78 75 53 47 44 41 39 39 39 43 47 48 50 52 54 56 62 67 72 75 74 71 68 69 67 67 77 83 92 93 89 96
81 63 67 63 88 88 86 88 87 81 78 72 72 55 49 45 45 43 41 42 43 48 53 58 57 56 61 62 64 71 74 76 78 80 82 79 70 71 77 96 96 90 94 94
79 69 82 84 86 88 86 84 84 77 75 71 48 45 45 45 47 47 47 48 52 58 63 63 62 69 71 73 75 74 77 77 81 92 86 83 74 76 86 70 78 92 94 92
73 64 67 75 88 82 83 80 77 73 45 40 44 44 45 51 52 53 58 58 58 62 67 68 73 71 75 85 86 84 83 87 93 97 96 86 80 78 75 72 70 69 71 81
71 68 78 84 84 75 76 74 68 51 39 46 46 49 52 56 57 65 61 61 65 68 72 81 76 84 82 88 89 96 98 98 91 94 97 96 96 95 92 82 80 78 71 71
74 83 90 86 86 73 50 44 45 42 47 49 51 58 61 61 65 68 67 67 71 73 82 80 87 90 88 84 87 94 93 92 93 96 97 97 98 92 93 96 96 95 85 78
87 78 81 77 67 49 40 40 47 51 54 56 61 62 62 68 75 75 74 75 79 86 86 84 83 89 84 87 84 89 91 94 95 97 95 95 94 94 96 95 96 97 98 96
78 70 74 71 44 39 42 49 53 58 58 58 60 63 67 79 81 83 85 87 94 89 83 80 80 86 85 92 88 92 88 91 97 96 93 91 96 96 96 96 97 97 97 97
83 79 64 55 55 52 52 55 57 61 64 62 63 80 80 88 94 90 90 93 94 91 85 85 86 83 88 93 92 93 93 93 91 94 97 95 97 97 96 96 96 97 96 97
55 60 57 58 59 68 72 71 74 68 67 69 85 96 97 98 95 94 95 95 93 85 84 84 86 89 94 96 93 93 96 91 94 94 95 95 97 98 97 95 97 98 97 97
58 64 60 56 59 68 72 78 88 90 98 97 98 93 93 97 98 97 96 96 93 88 82 88 89 92 97 98 97 98 97 96 98 98 96 96 100 98 98 97 97 96 96 96
53 58 61 58 74 78 73 88 94 95 90 97 98 99 100 96 96 97 96 95 88 82 90 91 95 90 98 98 98 99 97 97 96 98 98 97 100 98 97 96 94 96 97 98
69 73 82 85 88 93 96 95 97 97 93 98 96 97 97 97 98 98 100 97 87 90 92 99 96 94 98 97 98 99 97 96 97 96 94 94 99 100 96 95 95 96 98 98
74 82 80 86 92 93 93 96 98 96 94 95 94 94 96 94 96 99 96 95 90 96 94 96 93 93 98 98 98 98 97 96 96 96 96 98 99 98 97 95 98 96 96 97
80 87 89 92 94 91 97 96 97 97 97 96 96 99 98 92 95 99 97 91 95 91 92 92 92 94 98 99 99 98 97 97 97 97 98 96 93 94 94 95 94 92 92 93
92 85 93 94 98 99 98 86 92 92 94 93 95 96 93 98 97 98 96 98 98 94 93 93 94 95 98 99 99 98 98 96 96 96 96 96 96 94 94 92 95 93 91 92
93 87 92 94 93 92 89 88 94 94 94 93 96 94 97 98 98 97 98 94 94 95 95 93 96 98 99 99 98 97 97 97 97 98 97 97 97 97 95 94 94 95 96 94
82 91 91 86 91 93 93 96 97 98 99 100 98 98 96 96 96 95 94 93 95 96 96 90 97 99 99 98 98 98 98 96 96 97 97 97 97 97 96 95 93 94 92 96
90 96 95 94 93 94 98 99 98 99 99 98 99 98 98 96 96 96 96 96 96 94 95 96 96 97 96 98 98 98 98 98 97 96 95 97 97 97 97 96 92 92 94 97
Wind_Speed
2 4 1 1 2 1 4 5 6 7 7 6 6 7 7 7 7 8 6 5 5 3 2 2 5 6 5 5 5 5 6 6 6 5 4 3 4 4 2 7 7 6 5 6
1 5 6 3 5 5 4 4 5 9 6 4 6 9 7 6 6 5 3 2 3 3 4 4 4 3 2 3 4 3 4 5 5 6 5 5 6 5 5 8 5 4 5 4
4 5 6 6 5 3 2 4 3 6 6 6 5 6 6 6 6 5 3 4 3 3 3 5 4 2 1 2 2 2 2 4 5 5 5 6 6 6 7 7 2 5 4 3
3 4 2 6 5 4 10 3 11 12 7 6 7 6 6 5 6 6 6 5 1 3 3 4 3 2 2 3 3 3 2 4 5 6 6 6 5 5 9 5 6 2 4 4
4 3 5 6 5 6 5 4 4 9 7 5 7 5 4 6 6 5 4 2 4 4 4 4 5 6 5 3 3 4 4 5 5 6 6 3 6 5 7 5 1 3 3 4
3 5 7 7 2 4 5 5 9 8 8 7 7 3 5 7 3 4 3 3 4 3 3 4 5 4 3 4 4 5 5 6 6 6 6 7 8 6 4 1 3 4 5 5
3 2 9 8 7 1 7 10 9 9 7 7 6 6 5 1 2 3 2 3 5 5 1 5 6 3 3 4 6 5 5 6 6 6 6 7 6 2 1 3 5 5 4 3
3 2 9 7 5 8 8 3 7 6 7 6 6 5 4 3 2 5 7 7 5 5 6 5 2 3 6 6 4 3 4 5 6 6 5 4 4 1 4 5 5 3 3 1
11 9 6 6 6 3 6 6 6 7 6 7 6 4 6 4 7 7 6 4 4 4 4 4 6 7 7 6 5 5 4 4 4 5 5 5 3 3 3 4 3 2 2 1
3 6 8 7 2 5 5 6 7 7 7 7 5 5 7 6 5 4 3 4 3 4 5 6 6 6 5 6 6 6 6 4 3 4 5 5 3 3 3 2 2 2 2 2
4 4 2 2 3 7 7 7 7 7 7 7 10 7 7 5 4 2 1 2 3 4 5 6 6 6 6 7 7 7 5 3 3 2 3 3 4 2 1 3 4 3 3 3
8 7 6 6 7 8 9 8 8 9 9 8 8 8 6 5 2 1 1 3 5 6 6 6 6 8 9 5 5 4 5 3 3 1 1 3 3 1 2 6 6 7 7 6
6 7 5 4 9 7 7 7 6 11 12 10 5 6 5 2 1 2 5 5 5 7 7 6 7 7 9 6 3 4 6 5 4 2 2 3 2 1 2 5 4 7 9 8
4 8 4 4 6 7 9 10 12 11 9 7 6 4 3 1 3 5 6 6 6 7 6 7 7 8 9 6 5 5 6 6 4 3 3 2 3 1 1 1 2 4 3 8
8 2 6 7 6 9 12 12 11 8 7 6 4 3 5 5 4 6 6 6 7 6 7 10 12 12 10 7 6 5 5 3 4 3 3 3 3 1 2 2 2 3 1 1
6 6 7 9 12 11 10 8 9 5 4 3 3 4 3 4 5 6 5 5 5 10 10 12 12 11 9 7 6 5 4 3 3 2 2 2 2 2 2 1 2 3 2 3
8 6 9 10 11 6 6 5 6 5 3 2 1 3 3 4 5 6 5 5 6 6 8 9 11 10 8 7 6 4 2 3 4 2 2 3 3 3 3 3 3 3 3 4
13 13 12 11 9 8 6 5 5 4 2 2 1 1 4 3 6 7 7 6 5 6 7 8 8 7 8 8 6 3 3 3 3 4 3 2 3 2 3 3 3 3 3 3
17 15 10 8 5 6 5 2 2 1 2 3 1 5 5 6 6 6 5 4 7 8 7 5 7 9 8 7 6 2 3 3 3 3 3 3 3 4 4 3 3 4 4 3
10 10 6 4 2 4 2 2 2 4 5 3 3 3 6 7 6 6 5 7 8 8 5 6 7 10 8 8 8 4 4 4 4 4 2 3 3 4 4 5 4 3 3 3
8 5 3 4 4 3 3 3 3 5 4 2 6 8 8 8 7 5 5 6 6 6 6 7 6 7 6 7 6 4 4 5 5 5 5 4 3 4 5 5 4 4 3 3
3 3 2 2 1 5 4 3 3 5 7 7 8 8 7 9 9 4 7 9 7 6 5 5 6 9 9 10 6 5 5 6 5 4 5 5 5 4 5 5 4 4 3 3
1 1 2 3 4 5 4 4 6 6 7 7 8 7 6 7 5 5 8 4 5 7 7 7 8 10 12 7 5 6 6 6 6 6 6 6 6 5 5 5 5 5 5 4
2 4 3 3 1 2 5 6 5 6 7 7 7 7 7 4 5 5 7 8 9 10 8 8 9 11 12 6 6 6 7 7 8 8 7 8 7 6 6 6 5 5 5 5
3 3 2 3 4 5 6 7 5 6 5 6 5 6 6 4 6 5 4 6 9 8 7 9 11 12 7 7 7 7 7 7 8 8 8 9 8 8 8 7 7 6 5 5
4 3 4 5 5 4 4 2 3 3 1 3 3 4 4 4 5 6 5 6 7 7 5 8 7 7 6 7 8 9 8 8 9 9 10 10 10 9 9 8 7 5 6 6
4 2 3 4 4 4 2 3 5 5 4 4 4 3 5 6 5 4 5 5 5 5 5 5 6 7 9 8 8 7 7 8 10 9 10 10 10 9 9 8 8 6 6 5
Wind_Direction
68 38 34 243 118 93 185 199 159 240 205 139 142 132 125 119 105 82 62 42 26 16 95 102 52 50 39 29 20 9 2 345 350 6 55 188 206 190 184 265 273 227 260 291
96 14 18 326 309 262 230 216 231 107 73 88 89 97 102 120 111 104 98 27 304 2 119 66 95 100 43 20 4 359 353 357 330 313 297 273 261 268 294 270 266 255 300 292
255 13 355 357 226 221 110 6 223 186 166 144 122 133 153 152 148 152 176 235 274 143 154 144 151 141 23 309 295 313 307 280 302 297 293 287 284 285 275 276 243 286 296 50
200 28 28 247 307 159 108 86 108 105 130 145 163 170 158 181 172 192 226 253 141 183 161 172 192 218 246 249 259 270 286 311 304 304 288 285 304 329 325 332 274 288 71 73
126 189 294 314 178 163 164 206 182 140 153 151 157 128 228 209 199 208 224 222 190 218 195 195 220 237 225 265 316 314 300 297 289 289 296 297 274 258 260 285 348 94 86 40
145 133 217 236 217 132 91 288 186 164 172 168 138 169 239 211 227 246 266 222 218 242 200 224 262 299 318 300 304 287 281 284 281 282 275 271 265 271 272 262 120 100 80 74
140 212 287 240 242 102 100 238 169 174 170 168 186 198 206 224 284 231 259 12 31 36 358 288 326 349 316 288 280 282 299 299 292 291 290 280 281 290 354 127 104 94 99 99
105 87 281 190 104 164 205 139 156 167 177 179 192 205 228 198 219 48 47 43 47 12 338 337 20 308 282 273 254 264 304 308 310 310 313 308 294 34 126 122 121 140 115 59
180 210 239 220 197 192 153 149 176 161 171 181 189 212 167 86 82 78 71 27 6 6 349 341 316 293 286 266 239 258 274 282 305 321 326 337 8 106 109 128 137 164 138 145
92 243 220 223 81 148 163 162 159 169 174 174 174 162 103 103 91 73 30 16 341 349 326 304 300 304 297 298 276 256 253 266 315 336 335 348 42 97 116 135 162 179 174 174
254 272 37 347 203 161 152 149 167 177 182 177 116 116 123 108 100 65 353 327 318 324 308 300 310 311 307 302 294 252 244 250 281 304 347 31 85 100 141 224 194 191 207 179
239 215 209 212 185 165 158 184 191 166 94 98 116 126 126 126 145 148 354 341 337 310 300 302 324 319 312 309 29 345 298 284 259 295 335 139 133 89 309 262 245 230 180 165
231 211 207 180 161 167 180 205 141 120 127 122 113 125 128 147 186 25 1 335 315 304 296 304 308 307 305 280 317 300 264 254 259 254 185 174 191 176 3 320 325 243 207 203
173 112 70 157 193 184 139 108 106 109 111 115 126 109 129 133 28 349 318 302 299 300 301 307 299 294 296 286 306 291 276 242 235 208 205 190 210 245 252 234 287 304 321 206
177 234 178 156 129 120 118 118 115 119 118 115 124 123 43 1 302 295 301 305 307 306 312 321 318 300 298 290 293 285 286 258 249 205 208 211 233 216 207 253 277 266 337 339
161 146 130 136 125 111 114 104 120 124 134 141 73 29 313 263 285 291 296 298 320 322 316 319 313 290 298 284 275 285 269 300 149 180 261 268 259 194 248 245 254 250 259 232
137 152 118 96 94 103 107 121 116 133 133 105 253 259 270 293 300 285 287 265 252 280 300 303 289 293 295 277 261 251 258 211 193 223 242 252 242 213 223 222 249 258 244 220
88 94 106 123 134 132 107 143 163 159 192 216 191 288 290 284 265 276 274 274 267 290 278 272 280 282 291 278 253 238 208 220 207 208 229 281 278 262 208 238 238 248 258 237
80 86 99 99 92 137 152 131 161 224 288 240 235 262 248 259 252 261 272 266 281 295 284 269 293 299 289 283 254 218 215 222 247 250 238 244 276 257 234 235 240 245 255 252
98 82 101 155 126 69 27 267 245 264 261 218 255 290 270 264 253 261 258 252 258 263 289 299 303 307 275 277 255 214 210 214 224 239 235 250 244 264 244 228 230 234 258 270
123 130 103 59 9 345 283 270 247 268 285 230 271 272 272 280 272 261 291 286 264 255 262 272 275 298 275 281 259 218 207 229 227 233 234 238 235 255 258 241 229 211 230 229
101 84 25 355 273 290 277 285 260 279 281 277 269 260 259 274 285 250 231 250 281 263 271 263 273 284 279 288 261 226 224 232 234 238 242 230 233 228 245 251 216 220 212 212
14 346 287 272 258 268 281 268 256 241 250 247 257 253 238 266 270 293 303 257 254 264 275 275 272 288 291 285 266 234 229 223 223 232 242 238 233 227 230 228 221 215 209 211
325 314 271 282 301 285 289 286 255 255 235 252 242 233 264 265 274 244 253 276 280 284 281 283 286 290 297 282 273 255 240 233 234 233 233 234 239 235 232 230 226 219 220 211
251 267 252 293 277 268 270 274 275 276 285 284 282 288 261 239 240 260 256 276 281 284 287 292 286 287 293 286 276 262 251 247 247 245 237 233 234 233 234 230 230 222 213 209
312 287 273 275 250 264 270 287 264 277 269 288 250 240 244 246 250 260 274 278 282 289 303 318 314 296 290 295 296 290 266 261 259 252 247 244 237 230 227 223 219 205 216 204
311 305 313 303 284 276 267 286 292 281 251 252 251 242 241 259 257 257 270 274 281 299 300 307 318 319 334 320 303 286 284 285 273 266 262 255 244 234 226 216 219 206 198 193